Location: Rumah Sambob
(2.9167°N, 113.9167°E)
Time: 19:30:09
(UTC+00:00)

Cosmos 1727 Rocket - Pass Details

Date: 06 June 2020
Orbit: 960 x 997 km, 82.9° (Epoch: 12 July)

Event Time Altitude Azimuth Distance (km) Brightness Sun altitude
Rises 19:54:44 0° 3° (N) 3,629 7.4 -32.4°
Reaches altitude 10° 19:57:15 10° 7° (N) 2,686 6.7 -31.9°
Maximum altitude 20:03:19 62° 87° (E) 1,078 4.3 -30.5°
Enters shadow 20:05:57 34° 153° (SSE) 1,525 4.9 -30.0°
